Skip Page Navigation
NASA JPL Caltech
NASA Logo - Jet Propulsion Laboratory + View the NASA Portal
+ Center for Near-Earth Object Studies
JPL Home Earth Solar System Stars & Galaxies Technology
JPL Solar System Dynamics
BODIES ORBITS EPHEMERIDES TOOLS PHYSICAL DATA DISCOVERY FAQ SITE MAP
IMPORTANT: The SSD Announcement email list is now available. Major changes are coming in the near future, including possible hostname and/or URL changes. To be notified of such changes, subscribe to this email list.

Please visit this page for more details.


JPL Small-Body Database Browser
Search: [ help ]  
48077 (2001 FX24)
Classification: Main-belt Asteroid          SPK-ID: 2048077
Ephemeris | Orbit Diagram | Orbital Elements | Mission Design | Physical Parameters | Discovery Circumstances | Close-Approach Data ]

[ show orbit diagram ]
Orbital Elements at Epoch 2458600.5 (2019-Apr-27.0) TDB
Reference: JPL 19 (heliocentric ecliptic J2000)
 Element Value Uncertainty (1-sigma)   Units 
e .06625323635073388 4.1518e-08  
a 2.224749018052533 9.6508e-09 au
q 2.077352195538436 9.2767e-08 au
i 6.39666627897048 5.1083e-06 deg
node 294.1795715022889 3.9469e-05 deg
peri 257.4883317112649 6.3451e-05 deg
M 154.6878632829306 5.4246e-05 deg
tp 2458079.696730135094
(2017-Nov-22.19673014)
0.00018072 TDB
period 1212.048399740584
3.32
7.8867e-06
2.159e-08
d
yr
n .2970178419253316 1.9327e-09 deg/d
Q 2.372145840566631 1.029e-08 au
  Orbit Determination Parameters
   # obs. used (total)      726  
   data-arc span      9455 days (25.89 yr)  
   first obs. used      1994-01-13  
   last obs. used      2019-12-03  
   planetary ephem.      DE431  
   SB-pert. ephem.      SB431-N16  
   condition code      0  
   norm. resid. RMS      .52051  
   source      ORB  
   producer      Otto Matic  
   solution date      2019-Dec-14 04:08:52  

Additional Information
 Earth MOID = 1.08883 au 
 Jupiter MOID = 2.62287 au 
 T_jup = 3.636 
[ show covariance matrix ]

Ephemeris | Orbit Diagram | Orbital Elements | Mission Design | Physical Parameters | Discovery Circumstances | Close-Approach Data ]

Physical Parameter Table
Parameter Symbol Value Units Sigma Reference Notes
absolute magnitude H 15.8   n/a MPO502476  

48077 (2001 FX24)          Discovered 2001-Mar-17 by LINEAR at Socorro
Reference: 20020921/Numbers.arcLast Updated: 2004-04-19

[ show close-approach data ]
Alternate Designations
 2001 FX24 = 1994 AR14 
Ephemeris | Orbit Diagram | Orbital Elements | Mission Design | Physical Parameters | Discovery Circumstances | Close-Approach Data ]
ABOUT SSD CREDITS/AWARDS PRIVACY/COPYRIGHT GLOSSARY LINKS
FirstGov 2020-Jan-19 02:16 UT
(server date/time)  
NASA Home Page
Site Manager:   Ryan S. Park
Webmaster  Alan B. Chamberlin